Temp
63 63 62 63 63 63 63 63 63 63 63 63 63 63 63 63 64 71 83 92 88 81 86 93 92 92 90 86 86 83 78 77 77 77 80 85 84 86 88 84 84 85 84 85 82
62 62 62 62 63 63 62 62 62 63 63 63 63 63 63 63 69 78 89 82 81 81 94 91 88 89 84 83 84 81 80 79 84 85 84 86 86 86 83 82 81 80 81 82 81
62 62 62 62 62 62 62 62 62 62 62 62 63 63 63 65 78 91 84 81 80 84 95 93 91 88 83 84 82 80 82 84 84 87 87 85 87 90 84 79 84 81 77 79 80
61 61 61 62 62 62 62 62 62 62 62 62 63 63 63 69 78 94 82 81 81 94 94 90 87 83 80 79 82 78 84 85 87 88 87 86 90 86 86 89 90 88 82 81 80
61 61 61 61 61 61 61 61 61 61 61 62 63 63 70 82 87 89 83 83 92 94 92 88 84 83 80 82 81 79 86 86 88 87 87 88 87 88 87 88 89 85 82 81 82
61 60 60 60 61 61 61 60 60 61 61 62 63 63 77 80 94 91 93 92 96 94 92 91 88 88 82 82 81 86 85 87 88 87 88 86 86 88 87 87 84 82 82 83 83
60 60 60 60 60 60 60 60 59 59 61 62 63 69 78 87 94 93 93 94 94 94 91 93 92 88 86 83 87 85 83 88 88 87 89 90 83 85 88 87 83 82 83 83 84
60 60 60 60 60 60 59 59 59 61 62 63 64 72 82 93 93 91 93 93 93 95 94 92 93 88 85 88 85 81 82 81 88 87 89 89 83 88 89 87 83 82 82 82 83
59 59 59 59 59 59 58 58 60 64 64 65 72 78 84 84 89 94 94 93 93 92 93 95 91 84 85 79 80 80 75 78 82 89 87 86 85 87 88 89 85 83 83 83 84
59 59 58 58 58 58 57 58 63 65 69 73 78 78 87 88 92 91 92 95 92 89 88 86 85 83 79 81 72 74 76 79 78 85 86 84 85 85 85 87 87 85 84 83 84
59 58 58 58 57 57 58 72 78 77 76 83 83 82 86 94 94 90 91 91 90 87 82 82 78 76 80 80 81 78 76 75 81 86 83 83 84 89 88 86 86 86 85 85 85
58 58 58 57 56 56 59 79 77 77 75 81 81 82 86 91 86 90 94 88 83 79 81 79 75 82 82 82 80 77 76 78 83 85 85 82 84 89 89 87 88 86 86 87 89
57 57 56 56 56 61 68 77 76 79 74 79 81 82 86 90 86 88 92 88 84 78 79 77 81 83 83 83 82 78 79 80 78 84 84 83 84 85 88 86 88 89 90 90 89
56 57 56 54 62 64 75 76 74 77 71 75 78 84 86 89 85 94 95 92 84 80 79 79 83 79 82 81 83 79 82 83 83 82 76 82 73 81 85 87 89 93 91 90 90
56 56 55 55 57 70 74 73 75 79 57 77 78 89 85 87 88 86 93 90 83 81 81 79 79 78 79 82 85 81 84 81 80 81 79 78 77 83 81 84 88 92 91 93 93
55 55 55 56 56 68 70 73 79 69 56 74 80 79 80 84 85 87 88 91 89 83 81 82 85 85 85 86 86 86 82 79 77 80 73 74 75 80 83 81 84 87 88 89 90
55 54 54 60 74 67 70 79 68 59 75 73 75 79 79 79 82 84 82 81 80 73 74 79 81 85 86 82 84 83 82 73 70 71 70 73 73 81 83 83 82 81 83 85 88
54 53 56 59 63 65 77 75 57 67 69 77 76 75 75 79 81 81 79 77 78 79 75 73 72 81 85 85 83 81 83 73 61 65 71 70 71 83 85 84 83 83 83 83 84
53 60 61 65 63 64 76 64 66 66 73 73 75 73 74 77 79 79 79 78 82 81 74 72 72 82 83 86 87 77 76 81 71 66 70 76 78 85 83 84 82 81 82 81 83
50 59 68 66 65 74 72 59 66 70 74 75 69 73 71 75 77 76 76 81 80 83 88 79 71 80 84 86 82 83 82 74 73 63 62 70 68 77 79 77 78 78 78 79 83
59 68 69 66 69 74 66 65 67 74 73 72 71 71 72 73 76 75 76 81 82 78 82 83 79 77 81 80 81 77 77 72 76 72 68 66 73 77 75 75 75 77 78 80 82
57 67 70 69 68 59 65 65 61 73 77 76 74 74 73 73 72 73 75 78 82 81 76 80 80 73 78 84 81 83 81 80 72 66 68 70 73 80 77 77 77 77 78 80 81
58 61 72 72 65 64 64 67 70 72 72 73 73 74 74 73 71 74 74 82 80 81 77 78 74 71 74 77 77 77 78 79 76 75 67 69 74 78 78 78 77 76 78 79 80
58 64 68 67 63 66 65 66 67 73 72 74 73 75 74 73 74 73 76 81 80 79 68 78 74 75 72 73 75 73 75 76 80 73 72 74 76 73 76 77 75 75 76 77 78
57 57 58 63 64 65 66 66 65 66 72 72 71 72 74 70 71 73 75 78 80 71 76 82 74 71 75 74 75 75 77 76 74 79 74 79 75 77 76 75 75 75 75 75 75
56 55 59 59 58 61 59 65 65 68 68 69 68 74 72 70 74 73 77 75 79 78 77 75 71 71 72 74 72 71 76 76 76 74 74 73 74 79 75 76 75 73 74 73 73
53 55 55 54 58 60 63 65 66 66 71 72 71 69 70 73 78 82 82 80 80 79 75 75 71 69 67 69 70 68 74 75 74 72 76 70 79 75 72 73 74 75 75 74 73
MSLP
1016.41 1016.12 1015.75 1015.32 1014.92 1014.62 1014.32 1014.02 1013.73 1013.44 1013.12 1012.70 1012.41 1012.11 1011.74 1011.39 1010.78 1010.61 1008.84 1006.72 1006.90 1006.94 1007.03 1006.98 1006.91 1006.99 1007.11 1007.13 1007.41 1007.55 1007.08 1006.46 1006.16 1005.84 1005.85 1006.17 1006.24 1007.06 1007.46 1007.78 1008.34 1008.85 1009.18 1009.80 1011.46
1016.44 1016.06 1015.60 1015.26 1014.85 1014.50 1014.15 1013.88 1013.55 1013.19 1012.93 1012.65 1012.25 1011.91 1011.61 1011.30 1010.56 1008.76 1006.23 1006.39 1006.80 1006.85 1006.76 1006.67 1006.73 1006.84 1006.99 1007.17 1007.31 1007.25 1006.72 1006.07 1005.90 1005.62 1005.61 1005.69 1005.90 1006.43 1007.18 1007.56 1008.15 1009.06 1009.96 1010.75 1011.60
1016.48 1015.96 1015.49 1015.12 1014.71 1014.36 1014.02 1013.71 1013.39 1013.07 1012.81 1012.50 1012.10 1011.72 1011.39 1011.17 1009.69 1006.65 1005.77 1006.46 1006.74 1006.90 1006.73 1006.74 1006.87 1006.83 1006.96 1007.16 1007.11 1007.02 1006.27 1005.93 1005.59 1005.29 1005.31 1005.34 1005.43 1005.95 1006.36 1006.98 1007.22 1008.08 1009.78 1010.82 1011.42
1016.37 1015.90 1015.44 1015.02 1014.60 1014.22 1013.91 1013.57 1013.25 1012.90 1012.60 1012.28 1011.90 1011.58 1011.22 1010.75 1008.51 1006.17 1006.04 1006.50 1006.71 1006.71 1006.71 1006.79 1006.91 1006.92 1006.98 1006.88 1007.02 1006.81 1005.96 1005.70 1005.32 1005.10 1005.07 1004.89 1005.06 1005.34 1005.60 1005.70 1006.47 1007.66 1008.98 1010.11 1010.94
1016.27 1015.81 1015.35 1014.95 1014.53 1014.08 1013.74 1013.41 1013.05 1012.64 1012.32 1012.04 1011.77 1011.46 1010.95 1009.57 1007.07 1006.31 1006.39 1006.60 1006.64 1006.66 1006.58 1006.67 1006.75 1006.86 1006.80 1006.79 1006.78 1006.50 1005.63 1005.31 1004.85 1004.93 1004.69 1004.73 1004.54 1004.74 1005.05 1005.92 1006.64 1007.94 1009.17 1009.77 1010.41
1016.22 1015.76 1015.33 1014.90 1014.41 1013.94 1013.53 1013.18 1012.82 1012.36 1012.12 1011.84 1011.62 1011.52 1010.52 1008.31 1006.12 1006.18 1006.33 1006.51 1006.30 1006.50 1006.54 1006.61 1006.59 1006.71 1006.78 1006.64 1006.40 1005.85 1005.33 1004.77 1004.22 1004.23 1004.16 1004.18 1004.21 1004.63 1005.08 1006.02 1007.10 1008.05 1008.87 1009.47 1009.87
1016.21 1015.76 1015.27 1014.78 1014.19 1013.66 1013.24 1012.85 1012.52 1012.11 1011.75 1011.53 1011.46 1011.20 1009.78 1007.06 1006.05 1006.29 1006.42 1006.32 1006.44 1006.44 1006.37 1006.73 1006.67 1006.61 1006.68 1006.31 1006.24 1005.64 1004.80 1004.00 1003.91 1003.73 1003.36 1003.61 1003.95 1003.81 1004.77 1005.77 1006.83 1007.82 1008.55 1009.24 1009.67
1016.22 1015.74 1015.19 1014.63 1013.98 1013.36 1012.87 1012.47 1012.01 1011.43 1011.19 1011.16 1011.26 1010.76 1008.15 1006.27 1006.10 1006.31 1006.31 1006.46 1006.68 1006.63 1006.57 1006.93 1006.83 1006.73 1006.61 1006.30 1005.86 1005.38 1004.89 1004.03 1003.76 1003.65 1003.36 1003.57 1002.85 1003.37 1004.37 1005.14 1006.20 1007.32 1008.15 1008.73 1009.06
1016.05 1015.51 1014.92 1014.32 1013.70 1013.06 1012.53 1012.09 1011.49 1010.87 1010.80 1010.91 1010.92 1009.87 1007.17 1006.52 1006.09 1005.75 1006.12 1005.99 1006.42 1006.73 1006.70 1006.89 1006.80 1006.87 1006.54 1006.15 1005.64 1005.40 1004.80 1004.16 1003.72 1003.55 1003.45 1003.54 1002.71 1003.41 1004.22 1004.74 1005.58 1006.51 1007.26 1007.90 1008.55
1015.85 1015.25 1014.64 1014.03 1013.47 1012.85 1012.17 1011.71 1011.19 1011.03 1010.83 1010.58 1009.99 1009.30 1006.72 1005.83 1005.47 1005.68 1006.17 1006.00 1006.11 1006.42 1006.69 1006.82 1006.86 1006.65 1006.54 1006.04 1005.59 1005.33 1004.83 1004.28 1003.74 1003.60 1003.42 1003.25 1002.78 1003.47 1003.91 1004.21 1004.77 1005.90 1006.66 1007.07 1007.41
1015.74 1015.02 1014.35 1013.74 1013.10 1012.56 1011.86 1011.05 1011.24 1010.76 1009.93 1008.39 1007.80 1007.00 1006.01 1005.43 1005.40 1005.49 1005.82 1006.04 1006.31 1006.31 1006.28 1006.71 1006.65 1006.23 1005.89 1005.77 1005.60 1005.33 1005.02 1004.52 1003.66 1003.40 1003.27 1002.86 1002.71 1002.34 1003.19 1003.90 1004.32 1004.99 1005.64 1005.99 1006.30
1015.65 1014.95 1014.23 1013.58 1012.94 1012.42 1012.07 1010.77 1010.47 1010.42 1008.98 1007.27 1006.97 1006.47 1005.97 1005.69 1005.25 1005.19 1005.46 1005.62 1006.24 1006.12 1006.48 1006.70 1006.20 1005.78 1005.75 1005.49 1005.15 1004.95 1004.48 1004.00 1003.60 1003.39 1003.09 1002.83 1002.34 1002.30 1002.46 1002.87 1003.72 1004.20 1004.66 1004.89 1005.51
1015.71 1015.00 1014.23 1013.43 1012.60 1012.21 1011.60 1010.42 1010.16 1009.92 1009.00 1006.72 1006.06 1005.55 1005.15 1005.25 1004.83 1004.56 1004.95 1004.97 1005.25 1005.73 1005.86 1005.85 1005.61 1005.63 1005.30 1004.95 1004.46 1004.48 1004.21 1003.87 1003.68 1003.33 1003.32 1003.00 1002.18 1002.21 1002.29 1002.71 1002.96 1003.30 1003.58 1004.01 1004.29
1015.70 1014.98 1014.26 1013.31 1012.79 1012.08 1010.83 1010.17 1010.02 1009.77 1008.45 1006.25 1005.40 1004.39 1004.62 1004.40 1004.24 1003.85 1004.11 1004.16 1004.78 1005.07 1005.56 1005.55 1005.28 1005.24 1004.75 1004.37 1004.22 1003.84 1004.14 1003.81 1003.30 1002.99 1003.15 1003.37 1002.41 1002.22 1002.25 1002.19 1002.30 1002.29 1002.56 1002.90 1003.29
1015.50 1014.98 1014.34 1014.07 1013.15 1011.70 1010.68 1010.28 1009.87 1009.44 1007.46 1005.32 1004.58 1004.11 1004.06 1003.76 1003.34 1003.69 1003.82 1003.86 1003.84 1004.49 1005.15 1004.75 1004.72 1004.98 1004.38 1003.92 1003.94 1003.78 1004.07 1003.96 1003.68 1003.53 1003.59 1003.39 1003.08 1002.16 1002.54 1002.31 1002.12 1001.89 1002.07 1002.26 1002.35
1014.91 1014.61 1014.13 1013.51 1013.08 1010.74 1010.38 1009.98 1009.53 1008.73 1006.25 1004.47 1003.99 1003.80 1003.77 1003.48 1003.17 1003.44 1003.62 1003.76 1003.89 1004.26 1004.60 1004.46 1004.54 1004.32 1003.73 1003.68 1003.70 1003.80 1004.03 1004.02 1004.14 1003.79 1003.40 1003.80 1003.62 1002.34 1002.64 1003.16 1002.73 1002.60 1002.47 1002.28 1002.17
1014.14 1013.62 1013.77 1012.94 1011.16 1010.59 1010.27 1009.54 1008.97 1007.57 1005.37 1004.46 1003.76 1003.56 1003.25 1003.00 1002.96 1002.90 1003.14 1003.32 1003.25 1003.80 1003.82 1004.13 1003.95 1003.66 1003.60 1003.47 1003.67 1003.64 1003.27 1003.28 1003.39 1003.36 1003.55 1004.25 1003.79 1002.30 1003.19 1003.63 1003.83 1003.62 1003.30 1002.90 1002.26
1013.36 1012.37 1011.94 1011.57 1010.88 1010.59 1009.64 1009.05 1008.09 1006.24 1005.16 1004.33 1003.76 1003.54 1003.12 1002.86 1002.74 1002.75 1003.03 1003.10 1003.50 1003.44 1003.51 1003.34 1003.36 1003.29 1003.20 1002.86 1002.77 1003.12 1003.04 1003.19 1003.20 1003.65 1003.75 1004.42 1003.17 1002.43 1003.23 1003.98 1004.52 1004.67 1004.44 1003.81 1002.92
1012.68 1011.67 1011.44 1010.69 1010.62 1010.89 1009.40 1008.45 1007.01 1006.18 1005.33 1004.46 1003.77 1003.27 1002.91 1002.66 1002.52 1002.68 1002.80 1002.88 1003.00 1003.19 1003.21 1003.43 1003.30 1003.12 1003.05 1002.77 1002.83 1003.55 1003.49 1003.71 1003.77 1004.80 1004.04 1003.43 1003.11 1002.79 1003.40 1003.98 1004.54 1004.67 1004.39 1004.11 1003.80
1013.08 1011.77 1010.61 1010.30 1010.32 1009.80 1009.05 1007.92 1007.27 1006.47 1005.62 1004.85 1003.87 1003.29 1002.69 1002.53 1002.46 1002.61 1002.74 1002.44 1002.52 1002.69 1002.75 1003.21 1003.35 1003.16 1002.86 1002.99 1003.43 1003.25 1003.56 1003.85 1003.77 1003.57 1003.42 1003.40 1003.47 1003.06 1003.54 1004.18 1004.97 1005.25 1005.40 1005.22 1004.73
1012.75 1011.30 1010.45 1010.30 1010.15 1009.23 1008.52 1007.98 1007.19 1006.33 1006.00 1005.10 1004.32 1003.63 1003.03 1002.62 1002.39 1002.46 1002.51 1002.41 1002.31 1002.76 1003.02 1003.08 1003.17 1003.08 1003.01 1002.61 1002.52 1003.51 1003.38 1003.86 1003.77 1003.64 1002.95 1003.04 1002.92 1003.82 1004.55 1005.27 1005.83 1006.16 1006.32 1006.08 1005.59
1012.83 1011.28 1010.46 1010.30 1009.73 1009.70 1008.51 1007.95 1007.25 1006.24 1005.83 1005.19 1004.74 1004.07 1003.44 1002.97 1002.67 1002.59 1002.36 1002.31 1002.42 1002.60 1003.02 1003.26 1002.88 1002.43 1002.41 1002.45 1002.95 1002.78 1002.74 1003.01 1002.86 1003.58 1003.73 1003.50 1003.20 1004.10 1004.93 1005.64 1006.30 1006.71 1006.76 1006.71 1006.41
1013.39 1011.75 1010.37 1009.94 1009.40 1009.10 1008.55 1007.72 1007.08 1006.35 1005.79 1005.31 1004.66 1004.25 1003.82 1003.28 1003.03 1002.48 1002.37 1002.31 1002.47 1002.44 1002.49 1002.98 1002.97 1002.43 1002.18 1002.77 1003.12 1002.57 1002.46 1002.57 1002.88 1002.85 1002.89 1002.93 1003.13 1004.27 1005.05 1005.94 1006.73 1007.02 1006.94 1006.94 1006.78
1013.66 1012.00 1010.59 1010.07 1009.97 1008.99 1008.23 1007.63 1006.96 1006.44 1005.93 1005.44 1004.90 1004.45 1003.96 1003.36 1003.15 1002.69 1002.36 1002.33 1002.54 1002.58 1002.67 1002.58 1002.68 1002.10 1001.80 1002.19 1002.58 1002.36 1002.17 1002.26 1002.12 1002.16 1002.29 1002.35 1002.97 1004.20 1004.92 1005.83 1006.82 1007.32 1007.37 1007.47 1007.37
1013.93 1013.05 1012.43 1010.64 1009.95 1009.19 1008.47 1007.88 1007.17 1006.55 1006.14 1005.65 1004.99 1004.52 1003.91 1003.55 1003.17 1002.77 1002.55 1002.43 1002.62 1002.97 1003.09 1002.93 1002.60 1002.94 1002.63 1002.79 1002.78 1002.61 1002.46 1002.53 1002.40 1002.05 1002.09 1001.93 1002.79 1003.57 1004.78 1005.83 1006.62 1007.54 1007.75 1007.75 1007.86
1014.70 1014.15 1012.91 1011.69 1010.63 1009.72 1008.74 1007.80 1007.30 1006.83 1006.38 1005.56 1005.16 1004.39 1004.41 1003.85 1003.04 1002.54 1002.46 1002.53 1002.26 1002.98 1003.08 1003.33 1003.25 1003.44 1002.99 1003.03 1003.09 1002.89 1002.82 1002.79 1002.82 1003.00 1003.01 1003.08 1003.24 1004.17 1005.39 1006.18 1006.83 1007.60 1007.95 1008.10 1008.42
1015.71 1015.21 1014.23 1012.29 1010.94 1010.05 1008.83 1008.08 1007.51 1007.43 1006.41 1005.92 1005.63 1005.30 1004.63 1004.05 1003.59 1002.84 1002.88 1002.74 1002.62 1002.59 1003.11 1003.44 1003.55 1003.83 1003.35 1003.82 1003.71 1003.38 1003.18 1003.11 1003.01 1003.42 1003.18 1003.41 1003.30 1004.48 1005.53 1006.36 1007.02 1007.50 1008.00 1008.47 1008.70
Wind_Speed
14 14 14 15 15 15 15 15 15 15 14 15 15 13 12 12 13 4 6 4 2 3 5 2 0 3 2 1 2 1 1 3 2 1 3 6 7 5 4 9 3 3 3 8 22
15 15 15 15 16 16 16 15 15 15 15 14 14 13 11 11 3 7 7 7 6 7 2 2 2 1 1 1 1 1 1 1 1 2 0 3 7 10 4 8 4 5 10 19 22
15 16 16 16 16 16 16 16 15 15 15 14 14 13 11 9 4 1 3 7 7 5 2 2 2 1 0 0 1 1 0 1 1 3 2 1 8 10 7 9 10 12 17 20 21
16 16 17 17 17 17 17 16 16 16 15 14 13 12 11 3 1 2 7 9 9 7 3 4 2 1 1 2 0 3 5 3 1 3 2 3 5 7 12 2 3 14 22 22 20
17 17 18 18 18 18 17 16 16 16 15 14 12 11 3 3 5 5 11 10 8 6 5 3 2 1 1 3 3 4 2 4 6 6 7 5 8 5 9 4 12 18 20 21 19
18 18 18 18 18 18 17 17 17 16 14 13 10 8 3 4 2 6 10 8 6 5 3 1 2 1 1 3 3 7 10 11 6 3 5 4 1 7 4 11 16 19 20 19 21
19 18 19 19 19 19 18 17 17 17 14 11 7 4 2 8 3 5 6 3 3 2 3 3 2 3 4 4 5 6 7 5 1 3 5 9 4 7 10 15 17 17 17 18 18
19 19 19 19 20 20 19 19 19 17 12 8 5 3 7 1 0 5 5 5 4 2 1 1 1 1 3 5 0 2 1 6 4 1 1 6 3 2 13 16 16 16 16 18 20
19 19 19 19 20 21 20 19 17 6 3 8 4 3 5 1 3 5 4 4 5 3 0 3 2 1 2 4 2 5 4 6 4 3 2 5 7 5 10 13 14 16 17 18 18
21 21 21 20 20 21 21 17 6 1 2 4 3 4 4 2 2 3 5 4 4 4 4 3 1 1 2 3 4 5 4 5 8 0 3 6 16 2 9 14 14 14 15 17 20
21 22 22 21 21 22 10 2 3 3 3 6 2 2 2 4 3 3 4 8 2 2 3 2 0 3 4 4 5 5 4 7 5 5 4 5 10 13 6 11 12 14 16 17 19
22 23 23 23 22 12 2 1 5 2 7 9 11 9 5 2 2 3 10 8 8 6 4 3 6 5 3 3 4 1 1 4 6 6 2 2 5 8 5 7 10 14 17 19 16
23 22 25 23 23 3 4 1 3 1 4 5 6 6 5 10 6 6 13 8 5 7 8 5 2 7 2 2 2 2 6 8 3 5 2 5 3 4 1 5 4 10 14 17 19
23 23 24 28 4 4 3 3 6 5 3 4 5 5 7 7 6 7 14 6 4 8 7 6 2 2 2 3 2 3 1 8 7 5 5 6 6 5 3 8 5 7 10 15 18
24 23 22 13 8 3 3 6 2 4 4 4 4 2 3 12 7 7 6 4 10 8 6 3 4 4 4 1 1 2 4 4 2 2 2 1 5 4 4 4 13 13 11 9 12
26 23 21 2 3 5 6 6 3 2 7 1 4 6 10 5 5 5 6 1 1 5 1 3 1 4 3 3 5 1 3 2 2 2 4 2 3 2 2 5 11 14 16 17 13
29 26 13 3 2 5 6 3 2 5 2 2 2 6 8 8 7 6 10 11 9 6 9 5 7 4 3 4 3 5 2 4 4 4 4 4 5 6 7 3 7 17 20 18 17
32 25 3 5 3 7 3 2 5 2 4 2 1 3 10 8 8 5 7 11 2 3 3 6 8 8 7 8 4 5 4 5 7 6 6 3 5 1 8 3 7 10 12 14 17
26 2 2 2 5 3 2 5 4 4 3 5 1 4 6 5 4 8 8 6 10 10 8 6 5 2 4 3 3 6 5 2 5 2 4 3 4 7 1 5 13 14 15 15 13
5 4 2 5 6 3 2 5 4 4 4 2 1 1 7 8 9 8 8 4 10 14 12 6 6 4 2 5 5 4 9 5 2 7 9 4 4 6 7 13 13 14 14 14 12
3 1 6 2 3 1 5 5 5 5 4 3 2 3 1 3 8 7 5 4 4 7 7 9 8 4 4 5 7 5 5 3 1 3 6 7 4 3 3 5 7 8 10 10 12
3 2 3 3 2 1 4 5 1 3 3 2 2 3 3 1 4 6 8 4 2 9 11 7 5 12 17 4 2 3 4 5 8 7 1 3 4 4 2 4 5 6 6 6 7
3 2 1 3 3 3 2 3 3 2 2 1 3 4 1 2 3 5 6 4 4 8 9 11 5 6 5 6 4 7 7 6 4 3 8 6 3 4 4 7 6 4 4 4 5
2 1 1 2 1 1 3 2 2 3 4 4 4 2 2 3 3 1 4 3 2 2 5 8 5 5 8 2 1 4 9 9 8 6 7 9 4 8 8 7 5 3 4 4 6
2 2 4 2 3 2 2 1 2 3 4 3 3 9 6 3 3 4 3 1 2 3 4 3 4 3 3 3 3 3 5 8 10 9 10 9 10 13 10 7 4 3 5 6 8
3 3 2 1 2 2 2 5 4 2 3 4 8 1 6 5 6 7 7 4 3 4 3 1 3 2 3 0 1 6 9 10 12 6 9 5 7 6 7 7 5 5 6 9 9
2 1 3 1 1 2 3 2 3 1 4 10 6 7 8 11 11 12 5 4 2 4 5 2 5 3 7 2 4 10 10 10 5 4 6 10 4 13 10 8 6 6 6 8 9
Wind_Direction
346 341 337 336 331 328 328 326 324 322 321 321 326 329 325 322 309 178 235 200 174 112 166 167 209 139 146 90 42 80 46 49 55 46 29 160 183 137 93 141 169 125 119 123 144
342 338 337 334 329 327 326 323 322 321 321 321 323 324 322 333 286 243 250 145 106 165 150 77 83 139 96 71 36 313 93 304 334 296 194 197 193 161 158 160 162 113 94 132 147
345 341 337 333 330 327 323 321 321 318 318 320 321 322 321 321 267 294 152 137 166 190 82 91 110 318 269 290 31 87 85 179 234 266 310 203 195 170 170 194 201 183 149 152 158
347 342 338 335 330 325 322 320 318 315 315 318 320 320 317 266 338 26 115 130 160 171 138 117 99 53 286 292 175 275 244 238 250 205 246 277 153 194 203 175 172 166 160 158 170
346 341 337 334 329 324 322 320 315 311 313 315 316 321 295 280 259 73 123 142 149 159 138 107 84 132 321 293 266 224 317 235 244 234 255 228 206 199 219 96 127 145 161 169 176
344 339 334 330 326 323 322 319 314 309 308 306 307 310 280 276 37 146 143 160 167 155 141 192 23 39 274 291 304 327 302 291 288 173 196 206 197 187 111 131 138 155 172 175 180
340 335 331 329 325 323 320 317 311 303 299 293 287 268 243 261 343 151 164 154 140 132 97 28 341 325 343 309 341 304 323 338 36 328 202 166 189 223 145 152 154 171 177 181 190
336 333 329 327 324 321 320 316 308 299 283 261 230 235 260 333 73 163 184 126 80 186 38 62 212 349 293 291 329 334 360 4 22 270 324 236 306 220 167 165 167 175 183 189 193
335 332 329 327 324 323 320 316 310 315 180 156 180 253 269 148 228 183 181 122 148 125 35 95 52 14 274 359 57 26 332 342 340 287 240 243 285 32 180 196 186 184 187 194 200
334 332 329 327 325 323 317 304 272 273 171 206 247 267 223 165 164 150 159 113 100 126 138 147 89 256 69 359 29 320 344 325 297 216 229 238 267 283 199 211 210 196 198 199 202
334 332 330 329 325 326 322 166 232 190 204 223 188 278 306 319 187 164 152 153 74 320 215 79 115 244 267 239 283 293 264 286 293 284 249 230 271 283 227 225 223 214 210 210 214
334 332 330 329 326 327 261 65 87 22 298 235 246 269 262 319 314 145 164 160 186 200 168 169 237 238 219 265 280 27 5 12 282 52 270 328 278 299 278 256 237 225 221 226 221
335 333 333 330 321 273 315 166 72 223 260 277 203 207 214 176 214 208 183 153 175 176 196 222 136 161 272 330 41 108 17 5 324 337 112 297 263 337 42 293 254 233 235 230 226
335 335 335 330 286 340 263 99 322 201 287 240 214 232 167 164 225 190 184 171 169 199 188 236 163 178 140 321 359 88 237 319 338 3 345 347 324 290 340 338 329 321 239 235 228
332 333 331 328 314 244 60 324 123 220 280 129 170 78 148 190 136 181 184 169 183 175 191 171 155 161 307 152 89 317 349 358 357 143 288 75 277 329 3 340 338 335 329 308 259
327 329 330 181 230 265 325 312 210 230 248 115 138 166 163 194 154 120 172 130 120 158 238 246 349 242 208 215 278 336 186 85 109 199 262 53 302 272 46 331 318 325 332 338 328
324 319 306 251 261 336 307 188 193 226 343 113 175 173 189 174 164 163 174 184 190 183 217 191 223 242 216 226 163 205 214 280 254 263 303 121 270 278 158 2 325 332 344 349 350
324 315 193 220 295 337 196 147 223 243 259 340 36 135 196 163 194 146 146 192 186 154 136 221 228 190 163 221 258 173 233 251 274 266 307 178 236 180 143 52 15 13 1 4 8
321 322 212 255 238 244 181 202 236 220 324 321 248 180 189 183 192 187 201 207 203 188 211 183 250 287 229 172 203 139 205 39 117 75 249 304 258 260 161 37 28 22 19 20 24
320 323 322 344 174 185 163 231 247 234 318 285 298 254 186 177 180 189 177 186 198 190 210 189 256 202 168 175 70 259 138 184 185 239 259 217 266 264 353 354 17 26 23 23 31
283 271 11 92 231 120 207 228 253 250 241 322 332 309 287 186 206 179 198 189 200 176 199 177 227 183 202 201 222 146 180 76 171 287 255 268 252 184 301 359 26 38 36 45 57
321 184 31 284 139 341 184 199 240 274 218 267 253 262 255 207 167 189 203 237 121 153 166 188 219 245 253 278 291 236 240 215 240 194 255 307 249 154 163 104 91 74 50 69 45
354 311 57 287 193 192 220 241 246 256 267 272 268 236 124 298 235 191 198 141 156 165 165 170 210 234 219 165 152 214 192 180 144 181 185 216 228 160 164 135 107 96 69 43 351
297 186 106 77 19 180 163 197 252 218 256 240 276 247 223 254 208 290 209 153 52 117 65 148 151 232 249 27 9 220 187 175 209 208 187 224 206 187 184 159 120 82 62 47 20
4 55 347 169 182 252 252 196 245 261 232 229 217 231 202 232 197 214 215 210 95 105 72 238 219 208 269 238 239 262 222 192 211 233 229 259 217 189 182 161 115 56 57 62 34
8 347 355 295 292 231 194 203 203 255 236 243 233 250 210 235 223 208 186 221 190 138 141 148 169 193 263 335 328 276 260 250 234 228 246 241 218 165 140 134 125 76 68 65 55
11 249 279 72 204 199 229 205 193 14 240 252 293 305 264 257 268 255 265 302 320 182 142 144 143 165 262 3 314 264 264 236 223 218 225 196 216 165 163 147 119 95 80 68 61